Location: downtown San Diego
(32.7310°N, 117.1990°W)
Time: 17:51:26
(UTC-07:00)

Genesis I - Pass Details

Date: 19 May 2017
Orbit: 506 x 524 km, 64.5° (Epoch: 26 May)

Event Time Altitude Azimuth Distance (km) Brightness Sun altitude
Rises 20:39:41 0° 334° (NNW) 2,657 7.9 -11.1°
Reaches altitude 10° 20:41:53 10° 336° (NNW) 1,765 6.8 -11.5°
Maximum altitude 20:45:50 71° 60° (ENE) 555 3.2 -12.2°
Enters shadow 20:48:35 19° 143° (SE) 1,294 4.6 -12.7°
